SCP
2 2 2 3 3 2 1 0 0 0 0 0 0 0 0 0 1 1 1 2 2 2 1 2 2 2 2 1 1 1 2 4 6 6 6 6 6 5 4 3 2 2 1 1 1 1 1 1 1
2 2 3 3 2 1 0 0 0 0 0 0 0 0 0 0 1 1 1 1 2 2 1 2 2 2 2 1 1 1 2 4 6 6 5 5 5 4 4 3 2 1 1 1 1 1 1 1 1
2 3 3 3 2 1 0 0 0 0 0 0 0 0 0 0 0 1 1 1 2 2 1 2 2 2 2 2 1 2 2 4 5 5 4 4 4 4 3 2 2 1 1 1 1 1 1 1 1
2 3 3 2 1 0 0 0 0 0 0 0 0 0 0 0 0 0 1 1 2 2 2 2 2 2 3 3 2 3 3 3 3 3 3 4 4 3 3 2 1 1 1 1 1 1 1 1 1
3 3 3 2 1 0 0 0 0 0 0 0 1 1 1 0 0 0 1 1 2 2 2 2 2 2 3 3 3 3 2 2 2 3 3 3 4 3 2 2 1 1 1 1 1 1 1 1 1
5 4 2 1 0 0 0 0 0 0 0 0 1 1 1 1 0 0 1 1 2 2 2 2 2 2 3 3 3 2 2 2 2 3 3 3 3 3 2 1 1 1 1 2 2 1 1 1 1
6 5 2 0 0 0 0 0 0 0 0 0 1 1 1 1 0 0 1 1 1 2 2 2 2 2 3 3 3 3 3 3 3 3 3 3 3 3 2 2 2 2 2 2 2 2 1 1 1
6 6 3 0 0 0 0 0 0 0 0 0 1 1 1 1 0 0 1 1 1 1 2 2 2 2 2 3 3 3 3 3 3 3 3 3 3 3 3 3 3 2 2 2 2 2 2 1 1
5 4 3 1 0 0 0 0 0 0 0 0 1 1 1 1 1 0 1 1 1 1 1 2 2 2 2 2 3 3 3 3 3 3 3 4 4 4 4 4 4 3 3 3 3 2 2 1 1
3 2 1 1 0 0 0 0 0 0 0 0 1 1 1 1 1 1 1 1 1 1 1 2 2 1 1 2 2 3 3 3 3 3 3 4 4 4 4 4 4 4 4 3 3 3 2 2 1
1 1 1 0 0 0 0 0 0 0 0 0 1 1 1 1 1 1 1 1 1 1 2 2 2 1 1 2 2 3 3 3 3 3 4 4 4 4 4 4 4 4 3 3 2 2 2 2 2
1 1 1 0 0 0 0 0 0 0 0 0 1 1 1 1 1 1 1 1 1 2 2 2 2 3 3 3 2 2 2 2 2 3 4 4 4 4 4 4 4 4 3 3 2 2 2 2 2
1 0 0 0 0 0 0 0 0 0 0 0 1 1 1 2 1 1 1 1 1 2 2 2 3 4 6 5 3 2 2 2 2 3 4 4 4 4 4 4 5 4 4 3 2 2 2 2 2
0 0 0 0 0 0 0 0 0 0 0 1 1 1 1 2 2 2 2 2 2 2 2 3 4 6 8 7 4 2 2 2 2 3 4 4 4 4 4 4 4 4 4 4 3 3 3 2 2
0 0 0 0 0 0 0 0 1 1 1 1 1 1 1 2 2 2 2 2 2 3 3 3 4 6 8 7 4 2 2 2 3 3 4 4 4 4 4 4 4 3 3 3 3 3 3 3 2
0 0 0 0 0 0 0 1 1 1 1 1 1 1 1 2 2 2 3 3 3 4 5 5 5 6 8 7 4 2 2 3 3 3 4 4 4 4 4 4 3 3 3 3 3 4 3 3 2
0 0 0 0 0 0 1 1 1 1 1 1 1 2 2 2 2 2 3 3 4 6 9 9 7 7 8 7 4 2 2 3 3 4 4 4 3 3 4 4 4 3 3 3 3 3 4 4 3
0 0 0 0 0 0 1 1 1 1 1 2 2 2 2 3 3 3 3 4 5 8 12 12 9 8 8 6 4 2 2 3 3 4 4 4 3 3 3 4 4 3 3 3 3 4 4 4 4
0 0 0 0 0 0 0 1 3 3 2 3 3 3 3 4 4 4 4 5 6 9 12 12 9 8 7 5 3 3 2 3 3 4 4 4 3 3 3 4 4 3 3 4 5 5 5 5 4
0 0 0 0 0 0 0 2 4 4 3 3 3 3 4 5 5 5 6 7 8 9 11 10 8 7 6 5 4 3 3 3 3 3 4 4 3 3 3 3 4 4 4 5 5 6 6 6 5
0 0 0 0 0 0 0 2 4 3 2 2 2 3 4 6 6 5 7 8 9 9 9 8 7 6 5 4 3 3 3 3 3 3 4 4 3 3 3 4 4 4 5 5 5 6 7 7 7
0 0 0 0 0 0 0 1 2 2 2 1 2 3 6 8 7 5 6 8 9 9 8 7 6 5 4 4 3 3 3 2 2 3 3 3 3 4 4 4 5 5 6 5 5 5 6 7 7
0 0 0 0 0 0 0 1 2 2 2 2 2 4 8 9 7 6 6 7 8 8 8 7 6 5 4 4 3 3 3 2 2 3 3 3 3 4 5 5 6 7 7 7 6 5 5 6 6
0 0 0 0 0 0 0 0 1 3 3 2 3 6 10 10 8 5 6 6 7 8 8 7 6 5 5 4 4 4 3 3 3 3 3 3 3 4 4 5 6 8 8 8 8 7 6 6 6
0 0 0 0 0 0 0 1 2 3 3 3 4 8 10 9 6 5 5 6 7 8 9 8 7 6 5 5 5 5 4 3 3 3 3 3 3 3 3 4 6 7 7 7 8 7 7 7 7
0 0 0 0 0 0 1 1 3 5 4 4 5 8 9 7 5 4 5 6 7 8 9 8 7 6 5 5 5 5 5 4 4 4 4 4 3 3 4 4 5 6 6 7 7 7 7 7 7
0 0 0 0 0 0 1 2 5 6 5 4 5 7 6 4 4 4 4 5 6 7 8 8 7 7 6 5 5 5 5 5 5 5 6 5 5 5 5 6 7 7 7 7 8 7 7 7 8
0 1 1 0 0 0 0 2 5 6 5 5 5 5 4 3 4 4 4 5 5 6 7 7 7 8 7 6 5 5 5 5 5 7 7 7 6 6 6 7 7 8 8 8 8 8 7 7 7
0 1 1 0 0 0 0 1 3 5 6 6 5 5 4 4 4 5 5 6 6 6 6 6 7 7 8 7 7 8 8 7 6 6 7 7 6 6 5 5 6 6 7 7 7 7 7 7 7
0 0 0 0 0 0 1 1 2 5 8 7 6 5 5 4 4 5 5 6 7 6 6 6 6 7 8 9 10 11 10 8 6 5 6 6 6 6 5 4 4 4 5 6 6 7 7 7 7
Wind_Speed
10 11 9 5 5 2 6 8 10 11 11 10 11 11 14 13 10 8 4 7 10 13 13 12 11 10 9 9 9 9 10 11 11 10 9 9 9 9 9 9 9 9 9 9 8 8 7 7 7
9 10 7 4 3 3 7 9 10 10 9 8 11 13 15 13 12 8 6 8 11 13 12 11 11 10 10 10 10 11 11 12 11 11 10 9 9 9 9 9 9 8 8 8 7 7 7 7 7
11 11 5 4 3 6 7 8 9 9 8 8 11 13 11 9 10 7 7 9 12 13 12 12 12 11 11 11 12 12 13 12 11 11 10 9 9 8 8 8 8 8 8 7 6 6 6 6 7
7 6 5 1 6 8 7 7 7 9 9 9 11 11 12 10 8 8 8 10 13 13 13 12 12 11 11 12 12 12 13 12 11 10 10 9 8 8 7 7 8 8 8 7 6 6 6 6 6
8 5 3 3 7 8 6 7 9 10 10 12 13 13 12 10 10 10 8 11 12 13 13 12 12 11 10 11 11 12 12 11 10 10 9 8 7 7 6 6 7 7 7 7 6 6 6 5 5
5 3 1 5 8 7 7 9 10 11 11 11 12 12 10 9 9 9 9 10 12 13 13 12 12 11 10 11 11 11 11 10 9 9 8 7 6 6 5 6 6 6 7 6 6 5 5 6 6
5 2 2 6 6 6 9 10 10 10 10 10 10 11 10 9 9 9 9 10 11 12 12 10 10 10 10 10 10 10 10 9 9 8 7 6 6 6 6 6 6 6 7 7 6 5 6 6 6
4 2 2 5 6 7 8 11 11 11 10 8 8 8 9 10 9 10 9 10 9 9 10 10 9 9 9 9 10 10 10 8 8 7 5 5 5 6 7 6 6 7 7 7 6 6 5 6 6
5 2 3 5 5 6 8 10 10 10 10 11 12 12 13 12 11 10 9 9 8 8 8 8 8 7 8 8 9 9 9 8 7 5 5 4 3 4 5 6 8 7 7 7 7 7 6 6 6
2 1 4 4 5 5 7 7 7 8 10 11 11 13 14 11 9 9 9 9 8 8 8 6 7 6 6 6 6 5 5 5 4 3 2 2 2 2 5 8 8 7 6 7 7 6 5 5 3
1 2 4 3 4 4 6 6 7 8 8 10 10 11 12 11 9 8 8 9 8 8 7 7 6 6 5 4 4 3 2 3 3 3 2 1 1 2 3 3 4 4 4 3 4 4 3 3 2
2 2 2 3 4 5 6 6 8 9 9 10 10 10 10 10 9 9 8 9 9 8 7 7 6 5 4 3 2 3 3 3 3 3 2 1 1 2 2 1 2 2 1 2 2 1 1 1 1
1 2 3 3 4 4 6 6 8 9 10 10 9 9 9 10 10 10 9 9 8 8 7 6 6 5 4 3 1 3 3 3 3 3 2 1 1 2 2 1 1 1 1 2 1 1 1 1 1
2 1 2 3 4 4 5 6 6 9 9 9 9 9 9 9 10 10 9 9 8 8 7 6 7 6 4 2 1 1 3 3 3 3 3 1 1 2 2 1 0 1 1 1 1 1 1 1 1
4 2 1 3 5 5 6 3 5 9 9 9 9 8 8 9 10 10 9 8 9 8 7 5 7 6 4 2 1 1 2 4 3 3 3 2 2 2 2 1 1 1 0 0 1 1 1 2 2
7 3 3 6 5 5 5 3 6 9 8 9 10 9 8 8 9 9 9 8 8 8 6 4 5 6 5 2 1 1 2 3 2 3 3 2 2 2 2 1 1 1 1 1 1 1 1 1 1
8 4 5 5 5 6 5 4 8 11 9 8 9 10 10 9 8 9 9 9 9 8 7 4 3 5 4 3 1 1 2 2 2 2 3 3 2 1 1 1 1 1 1 0 0 1 0 1 1
5 4 4 4 4 4 4 5 6 9 10 9 9 10 10 10 9 9 9 10 9 8 7 5 4 4 3 3 2 1 1 1 2 2 2 2 2 2 1 1 1 0 1 1 0 0 1 1 1
8 6 3 4 4 2 2 5 6 7 7 8 9 10 10 11 11 10 9 10 10 8 7 6 4 4 3 2 2 2 2 1 2 2 3 2 2 1 1 1 1 1 1 1 0 1 1 1 1
9 7 6 4 3 3 3 4 6 7 7 6 8 10 10 11 12 10 9 9 10 9 8 6 5 4 3 2 2 2 2 1 2 2 3 2 2 1 2 2 1 1 1 1 1 0 1 2 1
9 7 7 5 3 4 5 5 6 6 6 6 7 9 9 10 12 12 10 9 9 8 8 6 5 5 3 3 2 2 2 1 2 2 2 2 2 1 1 1 0 0 1 1 1 0 1 1 1
9 7 7 7 7 6 6 5 6 9 9 8 8 9 11 10 11 12 11 10 9 9 8 7 6 4 3 3 2 3 2 2 1 1 2 2 1 1 1 1 0 1 1 1 1 1 1 1 2
8 9 9 10 9 8 7 6 5 9 9 11 10 10 12 12 12 12 12 10 9 9 9 8 6 4 4 3 3 2 2 1 1 1 2 1 1 1 1 1 1 0 0 1 1 1 1 1 2
10 10 10 9 7 8 8 7 4 6 9 10 11 10 10 11 12 12 11 10 9 9 9 9 7 5 4 4 3 2 2 1 1 1 1 1 1 1 1 2 1 1 1 1 1 1 1 1 2
11 8 6 6 6 7 7 7 4 5 6 6 9 10 10 11 11 12 12 11 10 10 9 9 9 6 5 4 4 3 2 2 2 1 1 1 1 1 1 2 1 0 0 0 1 0 1 1 2
9 9 7 7 6 5 5 5 2 5 5 5 7 9 10 11 11 12 12 11 10 10 9 9 9 7 6 5 3 2 2 2 1 1 0 0 1 1 2 2 1 0 1 1 1 1 1 1 2
10 9 10 9 10 8 4 3 4 6 6 7 8 9 9 10 11 11 11 11 10 10 9 9 9 8 7 6 5 4 3 1 1 1 1 1 1 1 2 1 1 0 0 1 0 0 1 1 2
11 10 7 7 7 7 6 5 4 7 7 7 8 8 8 9 10 11 10 10 9 9 9 9 9 7 7 6 5 4 4 3 2 1 2 1 1 2 1 0 1 0 0 1 0 1 1 1 1
10 10 8 7 7 6 6 4 3 6 7 7 8 7 7 8 9 9 10 10 10 9 9 8 8 8 7 6 4 3 4 3 2 2 2 2 1 1 1 1 0 0 1 0 0 1 1 1 2
11 11 11 7 7 7 6 4 1 5 6 8 8 7 6 6 8 9 10 9 9 9 9 8 8 7 6 5 5 4 3 3 2 2 2 2 1 1 1 0 0 1 0 1 1 1 1 1 2
Wind_Direction
197 210 215 235 246 228 51 54 54 53 55 52 56 64 63 50 54 77 90 91 96 102 107 106 100 98 94 95 98 104 112 112 108 106 107 108 111 114 117 121 121 121 122 122 123 126 128 130 134
224 222 226 241 265 63 56 52 62 63 65 67 72 71 70 65 73 93 95 96 103 107 109 106 103 97 91 92 99 103 110 112 109 106 108 105 108 111 116 119 122 122 123 126 127 132 136 139 140
248 246 253 241 47 58 62 54 64 75 74 73 77 68 65 70 74 92 105 109 105 104 104 108 108 101 96 94 100 105 108 109 109 109 108 107 107 111 115 122 126 129 132 137 140 140 142 146 147
239 235 235 263 59 67 60 65 67 76 77 75 77 75 73 75 88 103 115 114 106 107 106 113 111 105 103 101 100 103 107 108 110 112 112 110 112 115 120 127 134 140 144 144 146 148 153 157 160
236 255 248 80 69 70 70 77 84 77 70 72 79 87 84 87 100 109 112 108 109 110 113 119 117 112 109 107 107 109 111 112 113 113 112 113 117 118 123 132 137 143 147 152 154 159 163 168 181
258 258 303 77 70 60 73 68 75 79 88 91 94 94 94 103 107 106 104 104 106 111 117 122 122 119 115 114 114 114 115 116 116 116 120 122 124 125 127 132 139 144 150 153 156 165 174 187 200
246 276 32 71 76 59 72 74 71 74 72 80 91 100 107 108 108 107 106 105 103 111 118 127 133 133 131 125 121 122 120 119 119 117 123 131 133 137 135 134 135 141 151 157 164 170 187 197 208
266 288 46 76 75 71 73 79 77 76 72 80 93 100 119 125 125 119 115 111 110 113 119 127 130 132 138 136 134 133 132 132 131 129 138 143 141 144 144 141 141 143 152 160 169 175 185 196 212
264 307 46 71 78 83 77 84 86 92 88 73 74 98 119 128 130 127 123 117 113 111 116 120 125 128 135 136 136 144 147 146 149 149 166 165 163 154 148 133 143 150 159 167 173 176 186 199 212
254 21 58 47 72 78 79 85 97 101 96 92 93 104 118 125 133 134 128 124 124 125 121 117 118 122 125 125 135 153 151 144 150 132 153 180 152 118 126 136 147 152 167 175 180 185 193 207 206
196 97 89 77 81 79 86 86 91 87 92 99 109 119 130 134 136 127 125 127 128 126 118 122 123 119 114 117 130 137 136 140 143 124 127 101 88 100 113 138 149 163 170 170 170 190 204 196 181
190 124 110 106 105 95 85 86 85 82 95 108 119 128 133 136 131 129 126 122 123 118 117 117 110 100 89 93 124 139 132 134 135 127 114 114 99 79 80 91 137 164 153 151 160 181 199 149 191
224 131 119 114 107 102 100 86 91 101 106 112 124 130 135 133 131 126 120 118 119 119 117 111 108 101 91 83 89 123 123 124 117 118 115 97 119 109 99 82 75 133 128 140 142 177 188 175 229
269 157 130 139 127 148 128 120 118 118 124 130 135 137 136 129 126 127 130 126 124 122 120 123 122 114 110 112 99 113 129 124 115 125 130 157 128 106 109 123 131 39 33 89 146 191 181 206 226
256 192 258 223 185 159 116 112 140 139 144 142 139 134 131 132 130 135 134 134 128 123 122 126 128 121 126 139 164 128 122 120 124 132 129 133 127 123 127 137 128 116 197 139 165 233 206 210 222
259 230 221 249 212 156 143 153 162 146 147 147 142 140 139 134 136 136 137 135 127 126 122 129 132 130 134 131 119 91 95 114 130 130 125 115 113 129 140 142 142 175 184 177 183 213 254 249 248
254 236 219 233 217 170 161 159 167 157 157 159 152 150 147 145 143 140 142 138 129 127 128 130 111 120 129 132 130 121 96 103 110 112 122 128 125 127 144 126 138 180 161 167 252 57 323 288 289
263 246 236 238 218 185 166 156 172 164 166 165 159 153 152 154 149 147 147 142 136 132 133 137 131 120 133 141 142 139 113 123 117 111 106 117 130 137 125 138 168 150 91 62 51 341 298 277 267
253 256 249 244 238 216 198 163 171 179 172 167 162 159 159 158 151 149 152 146 141 138 140 142 145 138 141 147 166 163 162 164 140 121 115 116 123 136 137 115 157 144 129 146 302 308 293 270 259
257 262 258 234 228 250 239 189 182 178 172 172 173 165 163 157 151 151 155 149 148 149 149 150 150 145 146 153 166 167 153 158 123 107 118 127 154 176 170 158 200 162 147 169 227 321 301 303 310
256 257 260 261 249 256 262 223 176 171 170 181 189 167 161 164 156 155 156 151 150 151 154 150 143 145 152 169 164 148 133 130 126 145 134 145 161 155 109 133 271 277 180 168 212 213 247 298 313
268 270 267 262 251 249 246 245 178 181 171 185 200 178 164 167 162 156 155 155 154 152 147 135 137 141 149 164 160 166 154 153 156 133 122 147 156 152 152 144 103 348 13 31 298 81 306 295 299
270 279 274 270 264 264 256 261 192 176 175 183 195 190 167 165 159 155 156 156 158 154 147 141 135 140 147 154 157 162 146 140 118 108 118 147 147 158 173 125 125 105 38 355 4 11 337 331 310
266 268 268 263 263 257 250 252 219 197 186 180 178 181 164 158 154 151 150 151 154 152 149 147 144 149 152 154 149 142 137 129 122 129 155 196 165 163 142 123 104 89 48 2 351 318 307 307 318
252 259 267 264 255 252 244 241 211 174 175 172 162 159 155 152 152 150 149 151 155 158 155 148 148 153 157 160 157 155 162 166 181 190 176 227 151 118 88 99 101 85 83 278 296 354 321 305 300
250 251 255 267 265 259 234 241 166 137 134 136 138 143 151 157 156 155 153 152 155 157 155 152 152 156 162 162 155 153 172 192 159 125 129 343 63 102 104 100 110 185 263 290 23 343 281 298 301
256 257 265 267 276 278 253 201 162 143 144 147 138 141 156 160 154 151 151 153 156 159 158 156 152 157 163 164 161 160 167 158 132 143 182 113 80 123 109 128 147 187 330 341 9 303 303 317 322
254 263 274 267 270 278 278 250 198 158 153 152 142 144 150 155 151 147 147 148 149 155 154 155 153 157 159 163 173 164 163 165 164 140 99 66 56 48 64 143 136 120 284 297 308 278 292 310 297
251 251 260 277 282 277 271 275 156 152 155 151 140 139 145 151 150 150 149 148 148 147 147 148 148 154 159 159 157 149 156 163 160 144 139 125 102 112 93 42 39 264 267 273 335 295 307 310 314
256 257 255 252 256 261 269 277 139 140 132 132 127 124 125 143 144 144 146 146 150 153 153 148 148 153 152 150 149 153 152 157 170 159 145 138 144 153 131 152 285 272 360 358 320 314 340 341 329